(40) Harmonia
ephemeris date magn radius delta ra dec elong phase
Today26 Jul 202611.72.362 AU3.243 AU10h02m+14°57'24.9°10.4°
Opposition17 May 20279.32.329 AU1.320 AU15h43m-15°01'175.3°2.0°
(40) Harmonia - 2026-07-26
astro.vanbuitenen.nl


 
-1 year
-1 month
-1 day
Now
+1 day
+1 month
+1 year

The interactive orbit chart above shows the body's path through the solar system and its position at the given date. Green and blue lines are shown perpendicular to the ecliptic plane: Green if the path is above the ecliptic plane, blue if it is below. (Left-click and drag to rotate the view; Right-click and drag to move the view; Use scroll wheel to zoom in our out.)

The orbital elements of Harmonia are:

            e (Eccentricity)                : 0.0466746
            a (Semimajor axis)              : 2.2677290
            i (Inclination)                 : 4.25501
            Ω (Longitude of ascending node) : 94.15164
            ω (Argument of perihelion)      : 269.93175
            M (Mean anomaly)                : 137.88788
            Epoch                           : 2026 Jun 09

            L (Longitude of perihelion)     : 184.08320
            B (Latitude of perihelion)      : -4.25501
            P (Orbital period in years)     : 3.41            
        

The light curve chart below shows the estimated development of the minor planet's magnitude.


The all-sky chart below shows the path of the minor planet over the same period as the light curve. The current position is marked yellow.





The following chart shows the path of the minor planet in the next few days. The field of view is optimized for (~10x50) binoculars and finderscopes.




Ephemerides:
Date       Time       RA (2000)    DEC (2000)    delta   radius  elong  phase   PA    magn
2026-07-26 00:00 UT   10 02 39.8   +14 57 11     3.243    2.362   24.9   10.4   104   11.7 
2026-07-26 04:50 UT   10 03 01.5   +14 55 16     3.245    2.362   24.8   10.4   104   11.7 
2026-07-27 00:00 UT   10 04 27.8   +14 47 38     3.249    2.362   24.5   10.3   104   11.7 
2026-07-28 00:00 UT   10 06 15.9   +14 38 02     3.254    2.362   24.0   10.1   104   11.7 
2026-07-29 00:00 UT   10 08 03.8   +14 28 23     3.259    2.362   23.5    9.9   104   11.7 
2026-07-30 00:00 UT   10 09 51.8   +14 18 41     3.264    2.363   23.0    9.7   104   11.6 
2026-07-31 00:00 UT   10 11 39.6   +14 08 56     3.268    2.363   22.5    9.5   104   11.6 
2026-08-01 00:00 UT   10 13 27.5   +13 59 08     3.273    2.363   22.0    9.3   104   11.6 
2026-08-02 00:00 UT   10 15 15.3   +13 49 18     3.278    2.363   21.5    9.1   104   11.6 
2026-08-03 00:00 UT   10 17 03.0   +13 39 24     3.282    2.364   21.1    8.9   104   11.6 
2026-08-04 00:00 UT   10 18 50.8   +13 29 28     3.287    2.364   20.6    8.7   104   11.6 
2026-08-05 00:00 UT   10 20 38.4   +13 19 29     3.291    2.364   20.1    8.5   103   11.6 
2026-08-06 00:00 UT   10 22 26.1   +13 09 28     3.295    2.364   19.6    8.3   103   11.6 
2026-08-07 00:00 UT   10 24 13.7   +12 59 24     3.299    2.364   19.1    8.1   103   11.6 
2026-08-08 00:00 UT   10 26 01.2   +12 49 17     3.303    2.365   18.6    7.9   103   11.6 
2026-08-09 00:00 UT   10 27 48.7   +12 39 08     3.307    2.365   18.1    7.7   103   11.6 
2026-08-10 00:00 UT   10 29 36.2   +12 28 56     3.311    2.365   17.7    7.5   103   11.6 
2026-08-11 00:00 UT   10 31 23.7   +12 18 42     3.315    2.365   17.2    7.3   102   11.6 
2026-08-12 00:00 UT   10 33 11.0   +12 08 26     3.318    2.365   16.7    7.1   102   11.6 
2026-08-13 00:00 UT   10 34 58.4   +11 58 07     3.322    2.366   16.2    6.9   102   11.6 


    Terminology:
            
    delta:  distance between minor planet and earth in AU
    radius: distance between minor planet and sun in AU
    magn:   magnitude (brightness) estimate    
    ra:     right ascension in hours (24h = 360deg)
    dec:    declination in degrees
    elong:  elongation in degrees (angle sun-earth-minor planet)    
    phase:  phase angle in degrees (angle sun-minor planet-earth)        
    AU:     Astronomical Unit (mean distance between earth and sun: 149597870.7 km
    

Orbital elements provided by the MPC (Minor Planet Center).
Calculations by a modified version of AAPlus, a C# implementation of the AA+ project by PJ Naughter from the algorithms presented in the book "Astronomical Algorithms" by Jean Meeus.
NGC2000 dso catalog and star labels from VizieR as provided by the Strasbourg astronomical Data Center.
Tycho2 catalog from the ESO archive.